Location: Newark
(10.6558°N, 61.4122°W)
Time: 22:31:28
(UTC+00:00)

N. Korean satellite - Visible Passes

Search period start: 24 August 2019 00:00
Search period end: 03 September 2019 00:00
Orbit: 457 x 507 km, 97.2° (Epoch: 24 August)

Date Brightness Start Highest point End Pass type
(mag) Time Alt. Az. Time Alt. Az. Time Alt. Az.
26 Aug 8.2 09:27:53 10° NNE 09:31:08 37° E 09:34:21 10° S visible
27 Aug 9.6 09:03:59 10° ENE 09:05:59 15° E 09:07:57 10° SE visible
30 Aug 8.8 09:20:49 10° NE 09:23:50 28° E 09:26:49 10° SSE visible
31 Aug 10.0 08:57:38 10° E 08:58:40 11° E 08:59:41 10° ESE visible
